Fryeburg, ME

10:48 AM EDT on March 23, 2017 (GMT -0400)
Eastern Slopes Regional

Weather History for KIZG - September, 2012

Change the Weather History Date:

Sunday, September 23, 2012

  Actual Average Record
Temperature  
Mean Temperature 58 °F -  
Max Temperature 68 °F 67 °F 78 °F (2001)
Min Temperature 44 °F 40 °F 32 °F (2008)
Degree Days  
Heating Degree Days 7    
Growing Degree Days 8 (Base 50)    
Moisture  
Dew Point 50 °F    
Average Humidity 77    
Maximum Humidity 100    
Minimum Humidity 35    
Precipitation  
Precipitation 0.17 in - - ()
Sea Level Pressure  
Sea Level Pressure 29.90 in    
Wind  
Wind Speed 3 mph (West)    
Max Wind Speed 13 mph    
Max Gust Speed 17 mph    
Visibility 8 miles    
Events Rain    
Averages and records for this station are not official NWS values.
T = Trace of Precipitation, MM = Missing Value Source: NWS Daily Summary

Daily Weather History Graph

Daily Weather History Graph

Search for Another Location

Airport or City:

Trip Planner

Search our weather history database for the weather conditions in past years. The results will help you decide how hot, cold, wet, or windy it might be!

Date:

Astronomy

Sep. 23, 2012 Rise Set
Actual Time 6:32 AM EDT 6:38 PM EDT
Civil Twilight 6:03 AM EDT 7:07 PM EDT
Nautical Twilight 5:30 AM EDT 7:40 PM EDT
Astronomical Twilight 4:55 AM EDT 8:15 PM EDT
Moon 2:48 PM EDT No Moon Set
Length of Visible Light 13h 03m
Length of Day
12h 05m
First Quarter, 60% of the Moon is Illuminated
Sep 23
First Quarter
Sep 29
Full
Oct 8
Last Quarter
Oct 15
New
Oct 21
First Quarter

Hourly Weather History & Observations

Time (EDT) Temp. Dew Point Humidity Pressure Visibility Wind Dir Wind Speed Gust Speed Precip Events Conditions
12:54 AM 60.1 °F 57.9 °F 93% 29.80 in 10.0 mi ESE 3.5 mph - N/A   Overcast
1:27 AM 60.8 °F 59.0 °F 94% 29.80 in 3.0 mi Calm Calm - 0.04 in Rain Rain
1:48 AM 60.8 °F 59.0 °F 94% 29.79 in 6.0 mi Calm Calm - 0.10 in Rain Light Rain
1:54 AM 60.1 °F 59.0 °F 96% 29.79 in 6.0 mi Calm Calm - 0.11 in Rain Rain
2:07 AM 60.8 °F 59.0 °F 94% 29.78 in 7.0 mi Calm Calm - 0.00 in Rain Light Rain
2:20 AM 60.8 °F 59.0 °F 94% 29.79 in 7.0 mi Calm Calm - 0.00 in   Overcast
2:54 AM 59.0 °F 59.0 °F 100% 29.79 in 5.0 mi Calm Calm - 0.03 in   Overcast
3:23 AM 59.0 °F 59.0 °F 100% 29.78 in 5.0 mi Calm Calm - 0.01 in Rain Light Rain
3:52 AM 59.0 °F 59.0 °F 100% 29.79 in 4.0 mi Calm Calm - 0.02 in   Overcast
3:54 AM 59.0 °F 59.0 °F 100% 29.78 in 4.0 mi Calm Calm - 0.02 in   Overcast
4:17 AM 59.0 °F 59.0 °F 100% 29.80 in 6.0 mi Calm Calm - 0.00 in Rain Light Rain
4:54 AM 59.0 °F 57.9 °F 96% 29.81 in 7.0 mi Calm Calm - 0.00 in   Overcast
5:54 AM 57.0 °F 55.9 °F 96% 29.82 in 10.0 mi WSW 4.6 mph - N/A   Partly Cloudy
6:54 AM 55.9 °F 55.0 °F 97% 29.85 in 10.0 mi WSW 5.8 mph - 0.01 in   Clear
7:54 AM 59.0 °F 55.0 °F 87% 29.88 in 10.0 mi WSW 4.6 mph - N/A   Clear
8:54 AM 60.1 °F 53.1 °F 78% 29.91 in 10.0 mi West 6.9 mph - N/A   Clear
9:54 AM 61.0 °F 46.9 °F 60% 29.92 in 10.0 mi WNW 12.7 mph 17.3 mph N/A   Clear
10:54 AM 63.0 °F 43.0 °F 48% 29.93 in 10.0 mi NW 9.2 mph - N/A   Clear
11:54 AM 64.0 °F 43.0 °F 46% 29.94 in 10.0 mi NW 9.2 mph 16.1 mph N/A   Clear
12:54 PM 66.0 °F 43.0 °F 43% 29.94 in 10.0 mi Variable 5.8 mph - N/A   Clear
1:54 PM 68.0 °F 39.0 °F 35% 29.94 in 10.0 mi NW 5.8 mph - N/A   Clear
2:54 PM 68.0 °F 39.0 °F 35% 29.94 in 10.0 mi Variable 6.9 mph - N/A   Clear
3:54 PM 66.0 °F 37.9 °F 36% 29.95 in 10.0 mi West 5.8 mph - N/A   Partly Cloudy
4:54 PM 64.9 °F 39.0 °F 39% 29.97 in 10.0 mi Variable 3.5 mph - N/A   Partly Cloudy
5:54 PM 61.0 °F 42.1 °F 50% 29.99 in 10.0 mi Calm Calm - N/A   Clear
6:54 PM 51.1 °F 46.0 °F 83% 30.01 in 10.0 mi West 3.5 mph - N/A   Clear
7:54 PM 48.9 °F 44.1 °F 83% 30.03 in 10.0 mi WSW 4.6 mph - 0.00 in   Clear
8:54 PM 51.1 °F 42.1 °F 71% 30.05 in 10.0 mi WSW 4.6 mph - N/A   Clear
9:54 PM 50.0 °F 42.1 °F 74% 30.06 in 10.0 mi SW 3.5 mph - N/A   Clear
10:54 PM 48.0 °F 41.0 °F 77% 30.07 in 10.0 mi Calm Calm - N/A   Clear
11:54 PM 44.1 °F 41.0 °F 89% 30.07 in 10.0 mi Calm Calm - N/A   Clear